Location: downtown San Diego
(32.7310°N, 117.1990°W)
Time: 02:11:40
(UTC-07:00)

OAO 2 Rocket - Pass Details

Date: 19 May 2017
Orbit: 676 x 747 km, 35.0° (Epoch: 26 September)

Event Time Altitude Azimuth Distance (km) Brightness Sun altitude
Rises 20:16:12 0° 220° (SW) 3,012 6.7 -6.9°
Reaches altitude 10° 20:18:49 10° 209° (SSW) 2,106 5.8 -7.4°
Maximum altitude 20:23:01 28° 150° (SSE) 1,263 4.2 -8.2°
Drops below altitude 10° 20:27:17 10° 91° (E) 2,142 5.3 -8.9°
Enters shadow 20:28:14 - 87° (E) 2,459 5.6 -9.1°
